DW6162 Weather Reports


Display with metric or nautical units.
time (UTC)temp
F
wind
direction
speed
MPH
gust
MPH
rain 1hr
in
rain 24hr
in
rain mn
in
humidity
%
barometer
mb
20260904211647 74 345 2.0 6.0 0.00 0.03 0.00 77 1014.4
20260904211502 74 343 3.0 6.0 0.00 0.03 0.00 76 1011.4
20260904205847 74 328 1.0 3.0 0.00 0.03 0.00 80 1014.7
20260904204946 74 338 1.0 3.0 0.00 0.03 0.00 81 1014.9
20260904204502 73 322 1.0 4.0 0.00 0.03 0.00 81 1011.8
20260904204046 74 348 2.0 4.0 0.00 0.03 0.00 79 1015.1
20260904203146 74 355 2.0 6.0 0.00 0.03 0.00 79 1015.1
20260904203103 73 336 1.0 4.0 0.00 0.03 0.00 79 1012.0
20260904201502 73 333 3.0 8.0 0.00 0.03 0.00 78 1012.1
20260904201346 74 351 2.0 9.0 0.00 0.03 0.00 79 1015.2
20260904200447 75 354 2.0 5.0 0.00 0.03 0.00 80 1015.2
20260904200106 74 22 2.0 4.0 0.00 0.03 0.00 79 1012.1
20260904195546 74 353 2.0 6.0 0.00 0.03 0.00 80 1015.2
20260904194503 74 358 3.0 5.0 0.00 0.03 0.00 78 1012.1
20260904193746 75 6 3.0 6.0 0.00 0.03 0.00 78 1015.4
20260904193103 75 12 3.0 7.0 0.00 0.03 0.00 77 1012.3
20260904192846 75 359 3.0 11.0 0.00 0.03 0.00 79 1015.6
20260904191946 74 5 3.0 8.0 0.00 0.03 0.00 81 1015.6
20260904191502 73 54 1.0 8.0 0.00 0.03 0.00 79 1012.4
20260904190146 74 359 2.0 5.0 0.00 0.03 0.00 81 1015.8
20260904185247 73 357 2.0 5.0 0.00 0.03 0.00 83 1015.9
20260904184510 72 343 2.0 8.0 0.00 0.03 0.00 83 1012.9
20260904184346 73 2 4.0 8.0 0.00 0.03 0.00 82 1016.1
20260904183446 73 11 3.0 6.0 0.00 0.03 0.00 84 1016.1
20260904183102 72 319 3.0 6.0 0.00 0.03 0.00 84 1013.0
20260904182546 72 344 1.0 3.0 0.00 0.03 0.00 85 1016.2
20260904181646 72 354 2.0 5.0 0.00 0.03 0.00 84 1016.4
20260904181502 71 339 1.0 5.0 0.00 0.03 0.00 85 1013.3
20260904180747 72 355 3.0 8.0 0.00 0.03 0.00 86 1016.5
20260904180111 71 307 1.0 5.0 0.00 0.03 0.00 85 1013.5
20260904175846 71 349 3.0 6.0 0.00 0.03 0.00 85 1016.7
20260904174946 72 4 2.0 7.0 0.00 0.03 0.00 84 1016.8
20260904174504 71 8 2.0 4.0 0.00 0.03 0.00 83 1013.6
20260904174046 72 20 2.0 4.0 0.00 0.03 0.00 83 1016.7
20260904173146 72 5 2.0 7.0 0.00 0.03 0.00 83 1016.8
20260904173105 72 40 1.0 6.0 0.00 0.03 0.00 84 1013.7
20260904172246 72 11 2.0 5.0 0.00 0.03 0.00 84 1017.0
20260904171503 71 27 2.0 7.0 0.00 0.03 0.00 84 1013.8
20260904171346 72 358 3.0 8.0 0.00 0.03 0.00 83 1016.9
20260904170447 72 2 2.0 7.0 0.00 0.03 0.00 83 1017.0
20260904165546 72 7 3.0 8.0 0.00 0.03 0.00 82 1017.0
20260904164503 72 336 2.0 6.0 0.00 0.03 0.00 83 1013.9
20260904163109 72 22 2.0 8.0 0.00 0.03 0.00 82 1013.7
20260904162846 72 358 2.0 7.0 0.00 0.03 0.00 83 1016.8
20260904161946 72 352 2.0 5.0 0.00 0.03 0.00 83 1016.9
20260904161502 72 315 1.0 5.0 0.00 0.03 0.00 83 1013.9
20260904160146 73 2 3.0 7.0 0.00 0.03 0.00 83 1017.0
20260904155246 72 1 3.0 8.0 0.00 0.03 0.00 83 1017.1
20260904154502 72 314 2.0 6.0 0.00 0.03 0.00 82 1014.0
20260904154346 73 1 3.0 7.0 0.00 0.03 0.00 82 1017.1
20260904153446 72 7 3.0 7.0 0.00 0.03 0.00 83 1017.1
20260904153107 72 47 2.0 6.0 0.00 0.03 0.00 84 1014.0
20260904151646 72 3 2.0 7.0 0.00 0.03 0.00 84 1017.0
20260904151502 71 32 0.0 7.0 0.00 0.03 0.00 84 1014.0
20260904150746 72 12 2.0 8.0 0.00 0.03 0.00 84 1017.0
20260904150105 71 240 0.0 5.0 0.00 0.03 0.00 85 1013.8
20260904145846 71 348 2.0 7.0 0.00 0.03 0.00 84 1016.8
20260904144946 72 18 2.0 8.0 0.00 0.03 0.00 84 1016.6
20260904144503 71 6 1.0 5.0 0.00 0.03 0.00 84 1013.6
20260904144046 71 350 1.0 4.0 0.00 0.03 0.00 83 1016.8
20260904143102 70 329 1.0 10.0 0.00 0.03 0.00 85 1013.5
20260904141503 69 324 1.0 5.0 0.00 0.03 0.00 88 1013.5
20260904141346 70 347 1.0 6.0 0.00 0.03 0.00 89 1016.8
20260904140446 69 2 2.0 9.0 0.00 0.03 0.00 88 1016.9
20260904140106 69 345 3.0 8.0 0.00 0.03 0.00 87 1014.0
20260904134646 69 6 4.0 9.0 0.00 0.03 0.00 88 1017.0
20260904134502 69 52 3.0 9.0 0.00 0.03 0.00 89 1013.9
20260904133746 69 2 2.0 8.0 0.00 0.03 0.00 90 1017.1
20260904133103 68 336 2.0 6.0 0.00 0.03 0.00 90 1013.8
20260904132846 69 351 2.0 6.0 0.00 0.03 0.00 90 1017.0
20260904131946 68 357 3.0 6.0 0.00 0.03 0.00 91 1016.7
20260904131502 68 351 2.0 5.0 0.00 0.03 0.00 91 1013.6
20260904131046 68 359 2.0 6.0 0.00 0.03 0.00 92 1016.7
20260904130146 68 5 1.0 7.0 0.00 0.03 0.00 92 1016.8
20260904130104 67 336 2.0 6.0 0.00 0.03 0.00 92 1013.7
20260904124503 67 317 2.0 7.0 0.00 0.03 0.00 93 1013.7
20260904124346 67 29 2.0 4.0 0.00 0.03 0.00 93 1016.8
20260904123109 66 51 1.0 6.0 0.00 0.03 0.00 94 1013.9
20260904121503 65 22 1.0 3.0 0.00 0.03 0.00 95 1013.8
20260904120746 66 49 1.0 5.0 0.00 0.03 0.00 96 1017.1
20260904120107 65 163 0.0 3.0 0.00 0.03 0.00 96 1013.8
20260904115846 65 104 0.0 3.0 0.00 0.03 0.00 96 1016.8
20260904114946 65 46 0.0 2.0 0.00 0.03 0.00 96 1016.8
20260904114502 65 311 0.0 1.0 0.00 0.03 0.00 96 1013.7
20260904114046 65 34 0.0 3.0 0.00 0.03 0.00 96 1016.8
20260904113105 65 360 0.0 2.0 0.00 0.03 0.00 96 1013.8
20260904112246 65 16 1.0 4.0 0.00 0.03 0.00 96 1016.9
20260904111346 65 44 1.0 3.0 0.00 0.03 0.00 97 1016.8
20260904110446 65 35 0.0 3.0 0.00 0.03 0.00 97 1016.9
20260904110106 64 34 0.0 3.0 0.00 0.03 0.00 97 1013.8
20260904104646 64 6 1.0 2.0 0.00 0.03 0.00 97 1016.6
20260904104503 64 8 0.0 2.0 0.00 0.03 0.00 97 1013.6
20260904103746 65 11 1.0 4.0 0.00 0.03 0.00 96 1016.6
20260904103107 64 79 1.0 4.0 0.00 0.03 0.00 96 1013.5
20260904102846 65 59 1.0 5.0 0.00 0.03 0.00 96 1016.5
20260904101946 65 104 0.0 3.0 0.00 0.03 0.00 96 1016.6
20260904101507 64 145 0.0 2.0 0.00 0.03 0.00 96 1013.6
20260904101046 65 43 1.0 2.0 0.00 0.03 0.00 96 1016.7
20260904100146 65 22 1.0 4.0 0.00 0.03 0.00 96 1016.6
20260904100104 65 6 1.0 4.0 0.00 0.03 0.00 96 1013.5
20260904095246 65 36 0.0 4.0 0.00 0.03 0.00 95 1016.5
20260904094503 65 228 0.0 4.0 0.00 0.03 0.00 95 1013.4
20260904094346 66 74 1.0 5.0 0.00 0.03 0.00 95 1016.5
20260904093103 65 53 2.0 11.0 0.00 0.03 0.00 94 1013.4
20260904091503 66 298 2.0 5.0 0.00 0.03 0.00 94 1013.6
20260904090746 66 10 2.0 6.0 0.00 0.03 0.00 94 1016.6
20260904085846 66 353 2.0 7.0 0.00 0.03 0.00 94 1016.4
20260904084946 66 5 3.0 7.0 0.00 0.05 0.00 94 1016.4
20260904084504 66 55 2.0 6.0 0.00 0.08 0.00 95 1013.3
20260904084046 66 17 2.0 7.0 0.00 0.06 0.00 95 1016.3
20260904083146 66 10 2.0 6.0 0.00 0.07 0.00 95 1016.2
20260904083102 66 323 2.0 5.0 0.00 0.08 0.00 95 1013.2
20260904082246 66 350 2.0 8.0 0.00 0.07 0.00 95 1016.2
20260904081505 66 15 1.0 4.0 0.00 0.08 0.00 95 1013.0
20260904080105 66 356 4.0 8.0 0.00 0.08 0.00 95 1013.0
20260904075546 66 6 2.0 7.0 0.00 0.08 0.00 96 1016.0
20260904074646 66 5 2.0 7.0 0.00 0.09 0.00 96 1016.0
20260904074503 66 49 1.0 7.0 0.00 0.15 0.00 96 1012.9
20260904073746 66 5 2.0 8.0 0.00 0.10 0.00 96 1015.9
20260904073102 66 25 2.0 6.0 0.00 0.15 0.00 97 1012.8
20260904072846 66 1 2.0 6.0 0.00 0.11 0.00 97 1015.9
20260904071946 66 13 2.0 6.0 0.00 0.12 0.00 97 1016.0
20260904071510 65 19 2.0 6.0 0.00 0.15 0.00 97 1013.0
20260904071046 66 8 3.0 6.0 0.00 0.14 0.00 97 1015.9
20260904070146 66 22 1.0 5.0 0.00 0.15 0.00 98 1016.0
20260904065246 66 25 1.0 3.0 0.00 0.15 0.00 98 1015.9
20260904064502 65 60 0.0 2.0 0.00 0.20 0.00 98 1012.6
20260904063446 66 24 1.0 4.0 0.00 0.15 0.00 98 1015.6
20260904063113 65 19 1.0 3.0 0.00 0.20 0.00 98 1012.5
20260904062546 66 91 0.0 1.0 0.00 0.16 0.00 97 1015.5
20260904061646 66 119 0.0 3.0 0.00 0.18 0.00 97 1015.5
20260904061503 65 236 0.0 3.0 0.00 0.20 0.00 97 1012.5
20260904060746 66 37 1.0 4.0 0.00 0.20 0.00 97 1015.4
20260904060114 66 46 1.0 3.0 0.00 0.20 0.00 97 1012.4
20260904054946 66 36 1.0 4.0 0.00 0.20 0.00 97 1015.5
20260904054503 66 44 0.0 3.0 0.00 0.20 0.00 97 1012.5
20260904054046 66 33 0.0 4.0 0.00 0.20 0.00 97 1015.6
20260904053104 66 144 0.0 2.0 0.00 0.20 0.00 97 1012.6
20260904052246 66 274 0.0 2.0 0.00 0.20 0.00 97 1015.8
20260904051501 66 94 0.0 0.0 0.00 0.20 0.00 97 1012.9
20260904051346 66 0 0.0 0.0 0.00 0.20 0.00 97 1015.9
20260904050446 66 29 1.0 2.0 0.00 0.20 0.00 97 1015.9
20260904050103 66 51 1.0 2.0 0.00 0.20 0.00 97 1012.9
20260904045546 66 313 0.0 2.0 0.00 0.20 0.00 97 1015.9
20260904044645 66 35 0.0 2.0 0.00 0.20 0.00 97 1016.0
20260904044504 66 25 0.0 2.0 0.00 0.67 0.00 97 1012.9
20260904043746 66 44 0.0 2.0 0.00 0.21 0.00 97 1015.9
20260904043103 66 43 0.0 1.0 0.00 0.67 0.00 97 1012.8
20260904042846 66 62 0.0 1.0 0.00 0.23 0.00 97 1015.8
20260904041946 67 60 0.0 2.0 0.00 0.31 0.00 97 1015.6
20260904041502 66 72 1.0 2.0 0.00 0.67 0.00 97 1012.6
20260904041045 67 58 0.0 2.0 0.00 0.62 0.00 96 1015.7
20260904040145 67 114 0.0 3.0 0.00 0.67 0.00 96 1015.4
20260904035246 67 50 1.0 3.0 0.00 0.67 0.67 95 1015.5
20260904034502 67 36 1.0 4.0 0.00 0.71 0.67 96 1012.5
20260904034345 67 17 2.0 5.0 0.00 0.67 0.67 96 1015.5
20260904033103 67 347 2.0 4.0 0.00 0.71 0.67 96 1012.8
20260904032546 68 64 1.0 5.0 0.00 0.70 0.67 96 1015.9
20260904031645 67 21 1.0 5.0 0.00 0.71 0.67 96 1015.8
20260904031502 67 46 1.0 4.0 0.00 0.71 0.67 96 1012.8
20260904030746 67 45 1.0 4.0 0.00 0.71 0.67 96 1015.9
20260904030103 67 1 1.0 4.0 0.01 0.71 0.67 96 1013.0
20260904025845 67 71 1.0 4.0 0.01 0.71 0.67 96 1016.1
20260904024946 67 52 1.0 3.0 0.01 0.71 0.67 96 1016.2
20260904024501 67 69 0.0 3.0 0.01 0.71 0.67 96 1013.2
20260904024046 67 77 1.0 3.0 0.02 0.71 0.67 96 1016.0
20260904023145 67 138 0.0 1.0 0.02 0.71 0.67 96 1015.9
20260904023108 67 131 0.0 1.0 0.02 0.71 0.67 96 1012.9
20260904022245 68 125 0.0 1.0 0.02 0.71 0.67 95 1015.7
20260904021507 67 97 0.0 0.0 0.03 0.71 0.67 95 1012.9
20260904021345 68 111 0.0 2.0 0.03 0.71 0.67 95 1015.9
20260904020445 68 77 1.0 3.0 0.02 0.70 0.66 94 1016.1
20260904020106 68 94 0.0 2.0 0.02 0.70 0.66 93 1013.2
20260904015546 69 69 1.0 3.0 0.02 0.70 0.66 92 1016.2
20260904014506 69 70 1.0 5.0 0.02 0.71 0.66 90 1013.2
20260904013745 70 61 1.0 6.0 0.01 0.70 0.65 87 1016.2
20260904013103 71 64 1.0 6.0 0.01 0.70 0.65 86 1013.3
20260904012846 71 25 2.0 7.0 0.01 0.70 0.65 84 1016.4
20260904011945 73 6 2.0 7.0 0.00 0.69 0.64 82 1016.4
20260904011506 73 22 2.0 6.0 0.00 0.69 0.64 81 1013.3
20260904011046 74 22 2.0 11.0 0.00 0.69 0.64 80 1016.5
20260904010145 74 24 2.0 7.0 0.00 0.69 0.64 79 1016.4
20260904010104 73 25 2.0 6.0 0.00 0.69 0.64 80 1013.3
20260904005245 74 15 3.0 6.0 0.00 0.69 0.64 79 1016.3
20260904004502 74 79 2.0 7.0 0.00 0.73 0.64 81 1013.0
20260904004345 74 11 2.0 7.0 0.00 0.69 0.64 81 1016.2
20260904003445 74 29 1.0 6.0 0.00 0.69 0.64 84 1016.2
20260904003102 74 58 0.0 6.0 0.00 0.73 0.64 84 1012.8
20260904002545 74 33 1.0 6.0 0.00 0.73 0.64 84 1016.1
20260904001646 74 39 1.0 5.0 0.00 0.73 0.64 85 1016.1
20260904001502 74 318 1.0 4.0 0.00 0.73 0.64 86 1012.8
20260904000745 75 25 2.0 6.0 0.00 0.73 0.64 85 1016.2
20260904000136 74 201 3.0 6.0 0.00 0.73 0.64 86 1013.0
20260903234945 74 18 1.0 4.0 0.00 0.73 0.64 88 1016.0
20260903234503 74 56 0.0 3.0 0.00 0.73 0.64 88 1012.7
20260903234045 75 55 1.0 2.0 0.00 0.73 0.64 88 1015.9
20260903233145 75 19 1.0 3.0 0.00 0.73 0.64 87 1016.0
20260903233103 74 29 0.0 3.0 0.00 0.73 0.64 87 1012.8
20260903232245 75 40 1.0 3.0 0.00 0.73 0.64 87 1016.2
20260903231502 75 350 1.0 4.0 0.00 0.73 0.64 86 1013.0
20260903231345 76 36 2.0 5.0 0.00 0.73 0.64 86 1016.1
20260903230445 76 42 1.0 5.0 0.00 0.73 0.64 85 1016.4
20260903230113 75 54 0.0 2.0 0.00 0.73 0.64 85 1013.1
20260903225545 76 14 0.0 3.0 0.00 0.73 0.64 85 1016.3
20260903224645 76 13 1.0 2.0 0.00 0.73 0.64 84 1016.5
20260903224506 75 33 0.0 2.0 0.00 0.73 0.64 84 1013.4
20260903223101 76 109 0.0 3.0 0.00 0.73 0.64 82 1013.2
20260903222845 77 12 0.0 3.0 0.00 0.73 0.64 82 1016.3
20260903221945 77 19 0.0 2.0 0.00 0.73 0.64 81 1016.4
20260903221503 77 4 0.0 2.0 0.00 0.73 0.64 81 1012.8
20260903221045 78 19 1.0 4.0 0.00 0.73 0.64 80 1015.9
20260903220145 78 46 0.0 3.0 0.00 0.73 0.64 81 1015.9
20260903220120 77 44 0.0 1.0 0.00 0.73 0.64 82 1012.6
20260903215245 78 38 0.0 1.0 0.00 0.73 0.64 81 1015.7
20260903214502 78 37 0.0 1.0 0.00 0.73 0.64 80 1012.3
20260903214345 78 46 0.0 2.0 0.00 0.73 0.64 79 1015.6
20260903213445 79 51 0.0 3.0 0.00 0.73 0.64 78 1015.5
20260903213105 78 111 0.0 3.0 0.00 0.73 0.64 78 1012.3
20260903212545 79 14 2.0 5.0 0.00 0.73 0.64 77 1015.4